EDT,Max TemperatureF,Mean TemperatureF,Min TemperatureF,Max Dew PointF,MeanDew PointF,Min DewpointF,Max Humidity, Mean Humidity, Min Humidity, Max Sea Level PressureIn, Mean Sea Level PressureIn, Min Sea Level PressureIn, Max VisibilityMiles, Mean VisibilityMiles, Min VisibilityMiles, Max Wind SpeedMPH, Mean Wind SpeedMPH, Max Gust SpeedMPH,PrecipitationIn, CloudCover, Events, WindDirDegrees
2013-9-1,75,69,63,70,65,61,93,86,78,29.95,29.89,29.83,10,8,1,15,5,18,0.73,5,Rain-Thunderstorm,224
2013-9-2,78,71,63,68,65,63,100,81,62,29.89,29.85,29.78,10,8,0,20,7,38,0.48,5,Fog-Rain-Thunderstorm,242
2013-9-3,67,61,54,64,57,52,100,79,58,30.06,29.93,29.83,10,8,0,20,9,26,0.00,7,Fog-Rain,289
2013-9-4,70,61,52,54,52,51,100,77,53,30.14,30.10,30.05,10,9,4,15,8,20,0.00,2,,274
2013-9-5,68,59,50,57,51,41,93,69,44,30.22,30.13,30.08,10,10,8,20,11,26,0.00,3,,290
2013-9-6,68,56,43,46,41,34,92,61,29,30.30,30.24,30.17,10,10,10,7,2,10,0.00,0,,61
2013-9-7,72,61,49,52,46,40,83,59,35,30.16,30.08,29.98,10,10,10,13,6,16,0.00,1,,233
2013-9-8,72,65,57,63,58,52,93,77,61,30.10,30.01,29.95,10,9,2,14,7,17,0.19,5,Rain,292
2013-9-9,68,59,50,59,52,43,89,75,61,30.20,30.15,30.11,10,10,10,14,7,18,T,3,Rain,162
2013-9-10,83,74,64,72,67,60,93,79,65,30.22,30.16,30.11,10,8,6,17,9,22,0.00,2,,230
2013-9-11,82,75,68,71,68,66,97,83,69,30.22,30.15,30.05,10,6,0,33,6,44,1.01,3,Fog-Rain-Thunderstorm,238
2013-9-12,76,67,57,68,64,56,100,87,74,30.03,29.91,29.81,10,7,2,26,9,39,0.27,6,Rain-Thunderstorm,264
2013-9-13,58,51,44,57,51,43,100,89,77,30.02,29.90,29.82,10,9,2,17,9,23,0.18,7,Rain,313
2013-9-14,58,50,41,45,41,37,100,79,57,30.22,30.11,30.01,10,10,10,13,6,18,0.00,5,,307
2013-9-15,66,53,40,52,46,39,93,73,52,30.23,30.17,30.10,10,10,10,12,5,,0.00,0,,231
2013-9-16,64,56,48,52,50,46,100,80,60,30.32,30.20,30.09,10,9,4,14,7,18,0.19,7,Rain,327
2013-9-17,61,50,39,46,40,34,100,70,39,30.44,30.36,30.31,10,8,0,12,4,24,0.00,3,Fog,78
2013-9-18,66,55,44,47,42,35,77,61,44,30.32,30.26,30.19,10,10,10,12,6,15,0.00,0,,176
2013-9-19,67,59,51,58,53,44,93,81,68,30.20,30.15,30.10,10,9,2,9,4,12,0.00,6,,197
2013-9-20,75,64,53,61,57,52,100,82,64,30.10,30.04,29.91,10,9,1,20,7,36,0.00,4,,193
2013-9-21,65,60,54,61,57,53,100,94,87,29.91,29.78,29.70,10,6,1,21,8,26,1.01,7,Rain,250
2013-9-22,57,52,47,54,48,44,100,81,62,30.02,29.89,29.78,10,10,6,16,8,33,0.01,7,Rain,319
2013-9-23,53,47,40,42,39,37,89,74,59,30.16,30.11,30.02,10,10,10,13,6,18,0.00,5,,333
2013-9-24,66,50,34,45,40,36,100,72,43,30.15,30.09,30.02,10,8,0,8,2,10,0.00,0,Fog,325
2013-9-25,65,55,44,49,44,40,92,68,44,30.02,29.98,29.95,10,10,10,8,1,12,0.00,0,,108
2013-9-26,70,58,45,49,43,37,86,60,33,30.11,30.04,29.97,10,10,10,9,3,12,0.00,0,,53
2013-9-27,67,58,48,52,49,46,100,76,52,30.25,30.19,30.12,10,10,10,8,3,12,0.00,2,,70
2013-9-28,60,54,47,52,49,46,100,84,67,30.32,30.28,30.23,10,8,2,15,7,20,0.00,3,,148
2013-9-29,66,56,46,50,46,44,93,77,60,30.22,30.15,30.08,10,10,10,10,5,15,0.00,2,,164
2013-9-30,67,58,49,57,51,45,100,79,58,30.10,30.07,30.03,10,10,10,9,5,13,0.00,5,,229